[[{"header":{"parameterUnit":"m.s-1","parameterCategory":1,"la1":30.2991,"la2":30.254,"lo1":-89.0895,"lo2":-89.0444,"dy":0.0017,"dx":0.0017,"nx":28,"ny":28,"refTime":"2024-04-21T09:00:00:Z","depth":0,"parameterNumber":2,"parameterNumberName":"U-component_of_WINDS"},"data":[0,0,0,0,0,0,0,0,0,0,0,0,0,0,0,0,0,0,0,0,0,0,0,0,0,0,0,0,0,0,0,0,0,0,0,0,0,0,0,0,0,0,0,0,0,0,0,0,0,0,0,0,0,0,0,0,0,0,-2.295,-2.2951,0,-2.2997,-2.2998,-2.2998,-2.2896,-2.2892,-2.2889,-2.2886,-2.2936,-2.294,-2.2944,0,0,0,0,0,0,0,0,0,0,0,0,0,-2.2771,-2.2775,-2.295,-2.2951,-2.2951,-2.2997,-2.2998,-2.2998,-2.2896,-2.2892,-2.2888,-2.2884,-2.2934,-2.294,-2.2945,0,0,0,0,0,0,0,0,0,0,0,0,0,-2.2837,-2.2776,-2.295,-2.2906,-2.2902,-2.2997,-2.2998,-2.2999,-2.2897,-2.2892,-2.2887,-2.2882,-2.2933,-2.2939,-2.2946,-2.3086,0,0,-2.2966,-2.2969,0,0,0,0,0,0,0,0,-2.2833,-2.2844,-2.2912,-2.2909,-2.2905,-2.2935,-2.2953,-2.3028,-2.2898,-2.2899,-2.2886,-2.288,-2.294,-2.2945,-2.2965,-2.3088,-2.3091,-2.2966,-2.297,-2.2973,-2.2975,0,0,0,0,0,0,0,-2.2829,-2.2841,-2.2969,-2.2913,-2.2909,-2.2883,-2.2887,-2.2967,-2.2947,-2.2899,-2.2891,-2.2898,-2.2937,-2.2959,-2.2966,-2.3091,-2.2966,-2.2972,-2.2976,-2.2979,-2.3331,-2.3336,0,0,0,0,0,0,-2.283,-2.2838,-2.2967,-2.297,-2.2856,-2.2891,-2.2895,-2.2931,-2.2946,-2.2943,-2.2902,-2.2893,-2.295,-2.2958,-2.2967,-2.3133,-2.2973,-2.2979,-2.2983,-2.3325,-2.3332,-2.3338,0,0,0,0,0,0,-2.2826,-2.2842,-2.2965,-2.2902,-2.2916,-2.2899,-2.294,-2.2934,-2.2956,-2.2948,-2.2944,-2.2929,-2.2947,-2.2958,-2.3057,-2.3133,-2.2982,-2.2988,-2.3319,-2.3327,-2.3335,-2.3465,0,0,0,0,0,0,-2.2822,-2.2842,-2.2896,-2.2904,-2.292,-2.3055,-2.2945,-2.2939,-2.2968,-2.2956,-2.2972,-2.297,-2.2944,-2.3048,-2.3064,-2.3139,-2.2994,-2.3312,-2.3323,-2.3332,-2.3454,-2.3477,-2.3496,0,0,0,0,0,-2.2816,-2.2931,-2.2899,-2.2915,-2.2986,-2.306,-2.3069,-2.3036,-2.2974,-2.3028,-2.3022,-2.297,-2.3121,-2.3059,-2.3076,-2.3155,-2.3307,-2.332,-2.3331,-2.3445,-2.3472,-2.3496,0,0,0,0,0,0,-2.2934,-2.2932,-2.2896,-2.3017,-2.3039,-2.3042,-2.3109,-2.3066,-2.3107,-2.3094,-2.3051,-2.3056,-2.3163,-2.3168,-2.3098,-2.3291,-2.3204,-2.322,-2.3284,-2.331,-2.3331,-2.3329,-2.2999,0,0,0,0,0,-2.2973,-2.3033,-2.3028,-2.3136,-2.3148,-2.3127,-2.3158,-2.313,-2.3151,-2.3161,-2.3162,-2.3185,-2.3238,-2.3274,-2.3322,-2.3453,-2.3455,-2.3515,-2.3536,-2.3554,-2.3569,-2.3638,-2.3665,-2.3377,-2.3377,-2.3377,0,0,-2.3057,-2.3063,-2.3104,-2.3159,-2.3173,-2.3236,-2.3136,-2.3207,-2.3253,-2.3171,-2.3265,-2.3267,-2.329,-2.3405,-2.3456,-2.3413,-2.3648,-2.3569,-2.3583,-2.3589,-2.3653,-2.3681,-2.3705,-2.3385,-2.3384,-2.3383,0,0,-2.3242,-2.3252,-2.3343,-2.3358,-2.338,-2.3364,-2.3386,-2.3395,-2.3393,-2.3485,-2.3425,-2.3479,-2.3571,-2.3589,-2.3611,-2.3799,-2.3752,-2.3815,-2.3926,-2.3994,-2.4017,-2.4037,-2.4105,-2.413,-2.383,-2.383,-2.383,0,-2.3344,-2.3436,-2.3395,-2.347,-2.3496,-2.3423,-2.3514,-2.3531,-2.3568,-2.3587,-2.3537,-2.365,-2.366,-2.3779,-2.3824,-2.3843,-2.3867,-2.3815,-2.4017,-2.4036,-2.4054,-2.4119,-2.4144,-2.3838,-2.3837,-2.3836,-2.3836,0,-2.356,-2.3625,-2.3695,-2.3731,-2.3764,-2.3848,-2.3819,-2.3858,-2.3826,-2.3815,-2.391,-2.3919,-2.3967,-2.3992,-2.3963,-2.4107,-2.4079,-2.4024,-2.3936,-2.409,-2.415,-2.4174,-2.3849,-2.3846,-2.3844,-2.3842,0,0,-2.3825,-2.3834,-2.3861,-2.3876,-2.3893,-2.3942,-2.402,-2.4066,-2.4101,-2.4127,-2.4192,-2.427,-2.4218,-2.4242,-2.4213,-2.4272,-2.4421,-2.4209,-2.4209,-2.425,-2.4581,-2.4624,-2.4654,-2.4388,-2.4393,-2.4396,-2.4579,0,-2.4009,-2.4144,-2.4108,-2.4243,-2.4302,-2.4231,-2.4299,-2.4317,-2.4308,-2.4357,-2.4346,-2.4403,-2.4329,-2.4343,-2.4399,-2.4392,-2.4488,-2.4377,-2.445,-2.4453,-2.4449,-2.4685,-2.4731,-2.4904,-2.4602,-2.4606,-2.4609,0,-2.4243,-2.4277,-2.4418,-2.4423,-2.4446,-2.4508,-2.4547,-2.4593,-2.4611,-2.46,-2.4626,-2.4584,-2.4661,-2.457,-2.4676,-2.4602,-2.4628,-2.4629,-2.4634,-2.4642,-2.4542,-2.4701,-2.4958,-2.4985,-2.4645,-2.4642,-2.464,0,-2.4424,-2.4504,-2.4599,-2.4613,-2.4622,-2.4667,-2.4672,-2.4685,-2.4714,-2.4747,-2.4765,-2.4807,-2.4831,-2.4864,-2.4834,-2.477,-2.4944,-2.4851,-2.4938,-2.4939,-2.4981,-2.4979,-2.5248,-2.4994,-2.4994,-2.4993,-2.4993,0,-2.4634,-2.4724,-2.468,-2.4739,-2.4836,-2.4792,-2.489,-2.4887,-2.4898,-2.4954,-2.4894,-2.4949,-2.4905,-2.4955,-2.4931,-2.5022,-2.5033,-2.5027,-2.502,-2.5034,-2.5035,-2.5053,-2.5041,-2.5,-2.4999,-2.4997,-2.4996,0,-2.4855,-2.4829,-2.4927,-2.4925,-2.4927,-2.4999,-2.4997,-2.5051,-2.5036,-2.5108,-2.5122,-2.51,-2.5155,-2.5128,-2.5186,-2.517,-2.5288,-2.5264,-2.5282,-2.5277,-2.5366,-2.5359,-2.5658,-2.5695,-2.5416,-2.5418,-2.5421,0,-2.4993,-2.5059,-2.5064,-2.5097,-2.5106,-2.516,-2.5189,-2.5147,-2.518,-2.5203,-2.5254,-2.5304,-2.5342,-2.5434,-2.5423,-2.5467,-2.5444,-2.5546,-2.5451,-2.5462,-2.5448,-2.5445,-2.5452,-2.5567,-2.557,-2.5572,-2.5575,0,-2.524,-2.5223,-2.5267,-2.5306,-2.5342,-2.5371,-2.5395,-2.5425,-2.5384,-2.5423,-2.5479,-2.5508,-2.5566,-2.5617,-2.5654,-2.5659,-2.5611,-2.5604,-2.5627,-2.5643,-2.5651,-2.5649,-2.5337,-2.5598,-2.5596,-2.5594,-2.5593,-2.5592,-2.5425,-2.548,-2.5492,-2.5542,-2.5555,-2.5578,-2.5628,-2.5618,-2.5664,-2.5707,-2.5679,-2.5745,-2.5758,-2.5802,-2.5813,-2.5864,-2.5823,-2.5856,-2.5865,-2.5874,-2.5887,-2.5641,-2.587,-2.5869,-2.5869,-2.5868,-2.5867,0,-2.5671,-2.5673,-2.572,-2.5754,-2.5794,-2.5742,-2.5765,-2.5801,-2.5859,-2.5875,-2.5913,-2.5976,-2.6024,-2.6015,-2.6058,-2.61,-2.6079,-2.6113,-2.6111,-2.6113,-2.592,-2.5897,-2.6129,-2.6129,-2.6129,-2.6129,-2.6129,-2.6129,-2.5803,-2.5895,-2.5879,-2.5975,-2.5977,-2.604,-2.6057,-2.6078,-2.609,-2.6163,-2.6202,-2.6195,-2.6201,-2.6244,-2.6285,-2.6281,-2.63,-2.6343,-2.6332,-2.6152,-2.6126,-2.6102,-2.608,-2.6347,-2.6348,-2.652,-2.6522,-2.6523]},{"header":{"parameterUnit":"m.s-1","parameterCategory":1,"la1":30.2991,"la2":30.254,"lo1":-89.0895,"lo2":-89.0444,"dy":0.0017,"dx":0.0017,"nx":28,"ny":28,"refTime":"2024-04-21T09:00:00:Z","depth":0,"parameterNumber":3,"parameterNumberName":"V-component_of_WINDS"},"data":[0,0,0,0,0,0,0,0,0,0,0,0,0,0,0,0,0,0,0,0,0,0,0,0,0,0,0,0,0,0,0,0,0,0,0,0,0,0,0,0,0,0,0,0,0,0,0,0,0,0,0,0,0,0,0,0,0,0,-7.9562,-7.9564,0,-7.9719,-7.9721,-7.9723,-7.9606,-7.9601,-7.9595,-7.9591,-7.9745,-7.9753,-7.9762,0,0,0,0,0,0,0,0,0,0,0,0,0,-7.9151,-7.9159,-7.9562,-7.9564,-7.9566,-7.9719,-7.9721,-7.9723,-7.9607,-7.96,-7.9594,-7.9588,-7.9742,-7.9752,-7.9763,0,0,0,0,0,0,0,0,0,0,0,0,0,-7.9321,-7.9161,-7.9561,-7.9526,-7.9524,-7.9719,-7.9721,-7.9724,-7.9608,-7.96,-7.9593,-7.9585,-7.9738,-7.9751,-7.9764,-8.0,0,0,-7.9805,-7.9811,0,0,0,0,0,0,0,0,-7.9311,-7.9336,-7.9529,-7.9529,-7.9527,-7.9635,-7.9633,-7.9816,-7.961,-7.9576,-7.9591,-7.9582,-7.9714,-7.9729,-7.9775,-8.0007,-8.0014,-7.9806,-7.9814,-7.982,-7.9824,0,0,0,0,0,0,0,-7.93,-7.9328,-7.9624,-7.9532,-7.9531,-7.9499,-7.9515,-7.9667,-7.9686,-7.9578,-7.957,-7.9591,-7.9712,-7.9762,-7.9778,-8.0016,-7.9806,-7.9818,-7.9826,-7.9831,-8.0446,-8.0454,0,0,0,0,0,0,-7.9292,-7.9319,-7.9619,-7.9628,-7.9398,-7.9513,-7.9531,-7.9608,-7.9684,-7.9688,-7.9597,-7.9585,-7.9744,-7.9762,-7.9783,-8.0062,-7.982,-7.9832,-7.984,-8.0438,-8.0448,-8.0457,0,0,0,0,0,0,-7.9284,-7.932,-7.9612,-7.9472,-7.9507,-7.9528,-7.9616,-7.9615,-7.9666,-7.9698,-7.97,-7.9646,-7.9738,-7.9764,-7.9947,-8.0066,-7.9838,-7.985,-8.0428,-8.0441,-8.0452,-8.0624,0,0,0,0,0,0,-7.9273,-7.9318,-7.941,-7.9475,-7.9515,-7.9777,-7.9624,-7.9624,-7.969,-7.9675,-7.9745,-7.9749,-7.9734,-7.9928,-7.996,-8.008,-7.9861,-8.0417,-8.0434,-8.0448,-8.0608,-8.0641,-8.067,0,0,0,0,0,-7.9258,-7.9451,-7.9415,-7.9452,-7.9631,-7.9784,-7.9807,-7.9788,-7.97,-7.9791,-7.9812,-7.9746,-8.0048,-7.9947,-7.9983,-8.0109,-8.041,-8.0429,-8.0447,-8.0594,-8.0635,-8.0669,0,0,0,0,0,0,-7.9397,-7.9459,-7.942,-7.964,-7.9708,-7.9764,-7.9879,-7.9832,-7.9925,-7.9907,-7.9877,-7.9894,-8.0086,-8.0115,-8.0002,-8.0339,-8.0214,-8.0241,-8.0314,-8.0352,-8.0383,-8.0372,-7.9872,0,0,0,0,0,-7.9453,-7.9576,-7.9622,-7.9811,-7.9847,-7.9858,-7.9924,-7.9904,-7.9972,-8.0,-8.0034,-8.01,-8.0209,-8.0282,-8.0385,-8.0611,-8.0623,-8.0715,-8.0746,-8.0771,-8.0794,-8.0914,-8.0955,-8.0519,-8.0519,-8.0518,0,0,-7.9571,-7.9619,-7.9698,-7.984,-7.9891,-8.0015,-7.9883,-8.002,-8.0112,-8.002,-8.0195,-8.0222,-8.0294,-8.05,-8.0592,-8.053,-8.0917,-8.0795,-8.0814,-8.0825,-8.0938,-8.0979,-8.1016,-8.0531,-8.0529,-8.0527,0,0,-7.9848,-7.9898,-8.0061,-8.0115,-8.0193,-8.0199,-8.0238,-8.0302,-8.0317,-8.0492,-8.0426,-8.0532,-8.0721,-8.0775,-8.0828,-8.1124,-8.1067,-8.1157,-8.1318,-8.1436,-8.147,-8.15,-8.1605,-8.1643,-8.1181,-8.1181,-8.1181,0,-7.9984,-8.0172,-8.015,-8.0294,-8.0357,-8.0281,-8.0444,-8.0496,-8.0603,-8.0647,-8.0577,-8.0812,-8.0855,-8.1072,-8.1144,-8.1189,-8.1231,-8.115,-8.1467,-8.1497,-8.1525,-8.1625,-8.1665,-8.1192,-8.119,-8.1189,-8.1188,0,-8.0334,-8.0465,-8.0586,-8.0695,-8.0771,-8.0923,-8.0922,-8.1001,-8.0974,-8.0986,-8.1164,-8.1213,-8.1324,-8.1373,-8.1347,-8.1586,-8.1545,-8.1472,-8.1345,-8.1578,-8.1671,-8.1709,-8.1207,-8.1203,-8.12,-8.1197,0,0,-8.0705,-8.0798,-8.0843,-8.0891,-8.0971,-8.1071,-8.1218,-8.1328,-8.1397,-8.1472,-8.1594,-8.1755,-8.1688,-8.1747,-8.1725,-8.1829,-8.2059,-8.1742,-8.1743,-8.1799,-8.2323,-8.2378,-8.2423,-8.2021,-8.2028,-8.2034,-8.2317,0,-8.0986,-8.1247,-8.123,-8.1474,-8.1593,-8.1522,-8.1649,-8.1711,-8.1725,-8.1826,-8.184,-8.1955,-8.1858,-8.1893,-8.1992,-8.201,-8.2163,-8.1989,-8.2131,-8.2137,-8.2117,-8.2471,-8.253,-8.2795,-8.2353,-8.2359,-8.2363,0,-8.135,-8.1441,-8.1697,-8.1759,-8.1808,-8.1924,-8.2023,-8.2121,-8.2188,-8.219,-8.2257,-8.2218,-8.2363,-8.2233,-8.2431,-8.2313,-8.237,-8.2387,-8.2397,-8.241,-8.2265,-8.2494,-8.2879,-8.2919,-8.2421,-8.2416,-8.2412,0,-8.1595,-8.1781,-8.1958,-8.2,-8.2077,-8.2159,-8.2194,-8.2254,-8.2321,-8.2406,-8.2448,-8.2548,-8.2603,-8.268,-8.2668,-8.2574,-8.287,-8.2739,-8.2874,-8.2875,-8.294,-8.2937,-8.3341,-8.2977,-8.2976,-8.2976,-8.2975,0,-8.1912,-8.2071,-8.2069,-8.2178,-8.2353,-8.2331,-8.2504,-8.2529,-8.2582,-8.2692,-8.2635,-8.2739,-8.2717,-8.2819,-8.281,-8.2975,-8.3,-8.3004,-8.3,-8.301,-8.301,-8.3047,-8.3029,-8.2986,-8.2984,-8.2982,-8.298,0,-8.2215,-8.222,-8.2408,-8.2465,-8.2483,-8.261,-8.2656,-8.2758,-8.2766,-8.2907,-8.2938,-8.2951,-8.3069,-8.3064,-8.3197,-8.319,-8.3394,-8.3367,-8.3372,-8.3367,-8.3503,-8.349,-8.3945,-8.4003,-8.3602,-8.3606,-8.3609,0,-8.2417,-8.2539,-8.2609,-8.268,-8.2721,-8.2836,-8.2904,-8.2885,-8.2958,-8.3042,-8.3133,-8.3246,-8.3335,-8.3526,-8.3546,-8.3646,-8.3622,-8.3774,-8.3637,-8.3642,-8.3624,-8.3617,-8.3628,-8.3802,-8.3806,-8.381,-8.3813,0,-8.2775,-8.2772,-8.2874,-8.2977,-8.3061,-8.314,-8.3213,-8.3273,-8.3262,-8.3346,-8.3467,-8.3537,-8.3673,-8.3784,-8.3881,-8.3912,-8.3861,-8.3856,-8.3893,-8.3904,-8.3902,-8.3905,-8.3446,-8.3846,-8.3843,-8.384,-8.3838,-8.3837,-8.3034,-8.3138,-8.3204,-8.3319,-8.3372,-8.3441,-8.3539,-8.3561,-8.3662,-8.3773,-8.3755,-8.389,-8.395,-8.4074,-8.4116,-8.4219,-8.4164,-8.4217,-8.4231,-8.4244,-8.426,-8.3886,-8.4236,-8.4235,-8.4234,-8.4233,-8.4232,0,-8.3389,-8.3428,-8.3534,-8.3638,-8.3728,-8.3673,-8.375,-8.3828,-8.3949,-8.4011,-8.4101,-8.4238,-8.4346,-8.4374,-8.4477,-8.4554,-8.4533,-8.4582,-8.4576,-8.4584,-8.4303,-8.4261,-8.4597,-8.4597,-8.4597,-8.4597,-8.4597,-8.4597,-8.3584,-8.3757,-8.3761,-8.3958,-8.3994,-8.4128,-8.4177,-8.4239,-8.4289,-8.4446,-8.4537,-8.4555,-8.4602,-8.4708,-8.4803,-8.4808,-8.4849,-8.4907,-8.4903,-8.464,-8.4604,-8.4569,-8.4529,-8.4916,-8.4917,-8.5175,-8.5178,-8.5179]}]]